| time (UTC) | temp F | wind direction | speed MPH | gust MPH | rain 1hr in | rain 24hr in | rain mn in | humidity % | barometer mb |
| 20260504150111 | 67 | 219 | 2.0 | 7.0 | 0.00 | 0.00 | 0.00 | 47 | 1017.4 |
| 20260504100104 | 40 | 0 | 0.0 | 0.0 | 0.00 | 0.00 | 0.00 | 90 | 1016.6 |
| 20260504081604 | 43 | 0 | 0.0 | 0.0 | 0.00 | 0.00 | 0.00 | 84 | 1016.4 |
| 20260504080116 | 44 | 0 | 0.0 | 0.0 | 0.00 | 0.00 | 0.00 | 83 | 1016.2 |
| 20260504044551 | 47 | 0 | 0.0 | 0.0 | 0.00 | 0.00 | 0.00 | 79 | 1016.9 |
| 20260504043108 | 48 | 0 | 0.0 | 0.0 | 0.00 | 0.00 | 0.00 | 76 | 1016.8 |
| 20260504041550 | 48 | 0 | 0.0 | 0.0 | 0.00 | 0.00 | 0.00 | 74 | 1016.5 |
| 20260504040119 | 48 | 0 | 0.0 | 0.0 | 0.00 | 0.00 | 0.00 | 74 | 1016.6 |
| 20260504034556 | 49 | 0 | 0.0 | 0.0 | 0.00 | 0.00 | 0.00 | 73 | 1016.7 |
| 20260504033056 | 49 | 0 | 0.0 | 0.0 | 0.00 | 0.00 | 0.00 | 73 | 1016.7 |
| 20260504031556 | 50 | 0 | 0.0 | 0.0 | 0.00 | 0.00 | 0.00 | 71 | 1016.9 |
| 20260504030052 | 51 | 0 | 0.0 | 0.0 | 0.00 | 0.00 | 0.00 | 70 | 1016.8 |
| 20260504024557 | 51 | 0 | 0.0 | 0.0 | 0.00 | 0.00 | 0.00 | 69 | 1016.8 |
| 20260504023101 | 53 | 0 | 0.0 | 0.0 | 0.00 | 0.00 | 0.00 | 65 | 1016.7 |
| 20260504021557 | 54 | 0 | 0.0 | 0.0 | 0.00 | 0.00 | 0.00 | 60 | 1016.6 |
| 20260504020052 | 55 | 0 | 0.0 | 0.0 | 0.00 | 0.00 | 0.00 | 56 | 1016.4 |
| 20260504014601 | 55 | 0 | 0.0 | 0.0 | 0.00 | 0.00 | 0.00 | 55 | 1016.0 |
| 20260504013120 | 56 | 0 | 0.0 | 0.0 | 0.00 | 0.00 | 0.00 | 53 | 1015.9 |
| 20260504011550 | 57 | 0 | 0.0 | 0.0 | 0.00 | 0.00 | 0.00 | 51 | 1015.9 |
| 20260504010055 | 59 | 0 | 0.0 | 2.0 | 0.00 | 0.00 | 0.00 | 47 | 1015.6 |
| 20260504004555 | 60 | 167 | 1.0 | 2.0 | 0.00 | 0.00 | 0.00 | 46 | 1015.5 |
| 20260504003101 | 61 | 167 | 0.0 | 2.0 | 0.00 | 0.00 | 0.00 | 45 | 1015.5 |
| 20260504001606 | 62 | 148 | 0.0 | 2.0 | 0.00 | 0.00 | 0.00 | 44 | 1015.4 |
| 20260504000122 | 64 | 156 | 0.0 | 3.0 | 0.00 | 0.00 | 0.00 | 42 | 1015.3 |
| 20260503234555 | 66 | 143 | 2.0 | 4.0 | 0.00 | 0.00 | 0.00 | 39 | 1015.1 |
| 20260503233059 | 67 | 142 | 2.0 | 6.0 | 0.00 | 0.00 | 0.00 | 37 | 1015.1 |
| 20260503231600 | 67 | 190 | 1.0 | 5.0 | 0.00 | 0.00 | 0.00 | 35 | 1015.0 |
| 20260503230057 | 67 | 202 | 4.0 | 8.0 | 0.00 | 0.00 | 0.00 | 34 | 1015.0 |
| 20260503224553 | 67 | 142 | 3.0 | 8.0 | 0.00 | 0.00 | 0.00 | 34 | 1015.2 |
| 20260503223047 | 67 | 189 | 4.0 | 10.0 | 0.00 | 0.00 | 0.00 | 33 | 1015.3 |
| 20260503221553 | 67 | 157 | 6.0 | 12.0 | 0.00 | 0.00 | 0.00 | 33 | 1015.3 |
| 20260503220049 | 67 | 215 | 3.0 | 14.0 | 0.00 | 0.00 | 0.00 | 30 | 1015.4 |
| 20260503214549 | 67 | 285 | 4.0 | 10.0 | 0.00 | 0.00 | 0.00 | 30 | 1015.5 |
| 20260503213054 | 66 | 266 | 5.0 | 13.0 | 0.00 | 0.00 | 0.00 | 32 | 1015.8 |
| 20260503211555 | 67 | 280 | 3.0 | 11.0 | 0.00 | 0.00 | 0.00 | 31 | 1016.0 |
| 20260503210054 | 66 | 111 | 4.0 | 9.0 | 0.00 | 0.00 | 0.00 | 32 | 1016.1 |
| 20260503204552 | 66 | 216 | 4.0 | 11.0 | 0.00 | 0.00 | 0.00 | 33 | 1016.4 |
| 20260503203053 | 65 | 273 | 6.0 | 12.0 | 0.00 | 0.00 | 0.00 | 31 | 1016.6 |
| 20260503201553 | 65 | 188 | 5.0 | 11.0 | 0.00 | 0.00 | 0.00 | 33 | 1016.7 |
| 20260503200100 | 64 | 205 | 4.0 | 13.0 | 0.00 | 0.00 | 0.00 | 34 | 1017.0 |
| 20260503194556 | 64 | 263 | 4.0 | 11.0 | 0.00 | 0.00 | 0.00 | 34 | 1017.0 |
| 20260503193059 | 63 | 0 | 3.0 | 15.0 | 0.00 | 0.00 | 0.00 | 34 | 1017.2 |
| 20260503191603 | 63 | 210 | 6.0 | 15.0 | 0.00 | 0.00 | 0.00 | 34 | 1017.5 |
| 20260503190051 | 63 | 262 | 5.0 | 12.0 | 0.00 | 0.00 | 0.00 | 34 | 1017.7 |
| 20260503184552 | 63 | 284 | 5.0 | 11.0 | 0.00 | 0.00 | 0.00 | 34 | 1017.8 |
| 20260503183112 | 62 | 94 | 4.0 | 10.0 | 0.00 | 0.00 | 0.00 | 35 | 1018.1 |
| 20260503181619 | 62 | 211 | 7.0 | 13.0 | 0.00 | 0.00 | 0.00 | 34 | 1018.1 |
| 20260503180059 | 62 | 143 | 4.0 | 10.0 | 0.00 | 0.00 | 0.00 | 35 | 1018.3 |
| 20260503174553 | 61 | 269 | 4.0 | 11.0 | 0.00 | 0.00 | 0.00 | 35 | 1018.5 |
| 20260503173058 | 60 | 292 | 5.0 | 11.0 | 0.00 | 0.00 | 0.00 | 36 | 1018.7 |
| 20260503171557 | 60 | 311 | 7.0 | 15.0 | 0.00 | 0.00 | 0.00 | 38 | 1018.9 |